Погода в Раджшахи

Бангладеш     24°22′03″N   88°36′20″E
темп.,
°C
ветер,
м/с
пор.,
м/с
влажн.,
%
обл.,
%
осадки,
мм/ч
давл.,
гПа
погр.,
м
24 января, вс
вс2400:00+16с11584 0.0 101323
03:00+15зюз225985 0.0 101223
06:00+14юз126956 0.0 101323
09:00+19зюз015342 0.0 1015204
12:00+25ю233234 0.0 10141201
15:00+27юз23250 0.0 10101608
18:00+22вюв22350 0.0 101123
21:00+19в22410 0.0 101323
25 января, пн
пн2500:00+17ссв23460 0.0 101324
03:00+16ююв12510 0.0 101323
06:00+15в11520 0.0 101323
09:00+20в00420 0.0 1016195
12:00+27зюз11310 0.0 1014827
15:00+29сз25230 0.0 10112156
18:00+23с23320 0.0 101126
21:00+20с34360 0.0 101347
26 января, вт
вт2600:00+18ссв34430 0.0 101333
03:00+17ссв34460 0.0 101235
06:00+15ссв11490 0.0 101323
09:00+20сз11400 0.0 1016195
12:00+27св23260 0.0 10141190
15:00+28сз23250 0.0 10101730
18:00+22ссв11340 0.0 101123
21:00+19с23390 0.0 101226
27 января, ср
ср2700:00+17ссз23420 0.0 101325
03:00+16с33450 0.0 101225
06:00+15ссз23470 0.0 101327
09:00+20ссз34380 0.0 1016237
12:00+26ссз33250 0.0 1015955
15:00+28сз34230 0.0 10111790
18:00+22св01330 0.0 101123
21:00+19с33370 0.0 101429
28 января, чт
чт2800:00+18с33360 0.0 101430
03:00+16с34370 0.0 101341
06:00+15ссз34390 0.0 101335
09:00+20с34360 0.0 1016214
12:00+26ссз22240 0.0 1014770
15:00+28сз23230 0.0 10111306
18:00+23всв01320 0.0 101024
21:00+20с22340 0.0 101423